H1 CPF 1 NER 2021 12 21 9 8551 glonass131 H2 1301901 9131 39155 2021 12 21 0 0 0 2021 12 24 23 45 0 900 1 1 0 0 0 H9 10 0 59569 0.00000 0 -20929504.314 -12769543.300 6951595.786 10 0 59569 900.00000 0 -21545251.214 -13051907.246 3820699.881 10 0 59569 1800.00000 0 -21853192.083 -13074932.278 615323.262 10 0 59569 2700.00000 0 -21817080.789 -12880958.975 -2602052.826 10 0 59569 3600.00000 0 -21411996.017 -12519678.251 -5768643.477 10 0 59569 4500.00000 0 -20625549.105 -12045813.412 -8822604.199 10 0 59569 5400.00000 0 -19458577.579 -11516595.900 -11704260.138 10 0 59569 6300.00000 0 -17925292.703 -10989143.706 -14357294.196 10 0 59569 7200.00000 0 -16052873.023 -10517855.980 -16729868.454 10 0 59569 8100.00000 0 -13880520.059 -10151936.808 -18775654.897 10 0 59569 9000.00000 0 -11458015.602 -9933155.406 -20454753.658 10 0 59569 9900.00000 0 -8843841.820 -9893939.530 -21734479.568 10 0 59569 10800.00000 0 -6102944.019 -10055884.122 -22590001.125 10 0 59569 11700.00000 0 -3304231.026 -10428738.895 -23004819.438 10 0 59569 12600.00000 0 -517919.153 -11009917.502 -22971078.330 10 0 59569 13500.00000 0 2187168.300 -11784548.256 -22489700.645 10 0 59569 14400.00000 0 4746232.780 -12726062.950 -21570349.482 10 0 59569 15300.00000 0 7100953.692 -13797297.274 -20231216.736 10 0 59569 16200.00000 0 9201661.748 -14952054.670 -18498644.827 10 0 59569 17100.00000 0 11009143.507 -16137066.015 -16406590.653 10 0 59569 18000.00000 0 12496004.117 -17294261.135 -13995943.867 10 0 59569 18900.00000 0 13647534.412 -18363255.454 -11313714.145 10 0 59569 19800.00000 0 14462049.443 -19283946.591 -8412104.402 10 0 59569 20700.00000 0 14950687.731 -19999111.621 -5347488.898 10 0 59569 21600.00000 0 15136683.007 -20456896.295 -2179316.599 10 0 59569 22500.00000 0 15054141.959 -20613092.556 1031038.775 10 0 59569 23400.00000 0 14746381.646 -20433109.932 4221459.829 10 0 59569 24300.00000 0 14263898.069 -19893559.519 7330275.426 10 0 59569 25200.00000 0 13662052.122 -18983385.499 10297437.432 10 0 59569 26100.00000 0 12998570.183 -17704497.986 13065662.687 10 0 59569 27000.00000 0 12330963.756 -16071881.441 15581519.761 10 0 59569 27900.00000 0 11713975.309 -14113174.268 17796441.251 10 0 59569 28800.00000 0 11197156.032 -11867736.625 19667643.845 10 0 59569 29700.00000 0 10822675.559 -9385244.034 21158940.176 10 0 59569 30600.00000 0 10623454.061 -6723863.312 22241428.376 10 0 59569 31500.00000 0 10621694.050 -3948084.220 22894047.107 10 0 59569 32400.00000 0 10827873.056 -1126293.956 23103986.115 10 0 59569 33300.00000 0 11240239.751 1671807.945 22866944.406 10 0 59569 34200.00000 0 11844835.820 4377849.821 22187230.518 10 0 59569 35100.00000 0 12616044.531 6927376.278 21077701.720 10 0 59569 36000.00000 0 13517645.421 9262279.236 19559541.563 10 0 59569 36900.00000 0 14504333.551 11332971.751 17661877.866 10 0 59569 37800.00000 0 15523642.194 13100214.582 15421246.117 10 0 59569 38700.00000 0 16518190.515 14536519.035 12880906.144 10 0 59569 39600.00000 0 17428163.348 15627066.441 10090023.104 10 0 59569 40500.00000 0 18193919.492 16370104.410 7102726.794 10 0 59569 41400.00000 0 18758618.406 16776801.698 3977066.264 10 0 59569 42300.00000 0 19070753.355 16870566.293 773879.621 10 0 59569 43200.00000 0 19086482.009 16685854.456 -2444398.809 10 0 59569 44100.00000 0 18771653.358 16266520.482 -5614969.783 10 0 59569 45000.00000 0 18103442.267 15663777.184 -8675913.212 10 0 59569 45900.00000 0 17071519.463 14933854.381 -11567418.729 10 0 59569 46800.00000 0 15678704.721 14135456.139 -14232976.450 10 0 59569 47700.00000 0 13941073.371 13327126.604 -16620502.286 10 0 59569 48600.00000 0 11887510.010 12564638.306 -18683373.726 10 0 59569 49500.00000 0 9558727.356 11898515.845 -20381354.160 10 0 59569 50400.00000 0 7005791.487 11371801.775 -21681386.387 10 0 59569 51300.00000 0 4288215.911 11018160.618 -22558239.234 10 0 59569 52200.00000 0 1471705.305 10860401.940 -22994994.667 10 0 59569 53100.00000 0 -1374355.370 10909484.874 -22983366.367 10 0 59569 54000.00000 0 -4179560.376 11164045.359 -22523844.662 10 0 59569 54900.00000 0 -6875179.534 11610464.678 -21625666.338 10 0 59569 55800.00000 0 -9396778.565 12223474.532 -20306611.549 10 0 59569 56700.00000 0 -11686654.633 12967271.036 -18592633.555 10 0 59569 57600.00000 0 -13695986.720 13797088.528 -16517330.166 10 0 59569 58500.00000 0 -15386612.954 14661164.895 -14121268.851 10 0 59569 59400.00000 0 -16732363.279 15503013.984 -11451180.067 10 0 59569 60300.00000 0 -17719894.838 16263908.203 -8559035.630 10 0 59569 61200.00000 0 -18348998.321 16885466.219 -5501031.002 10 0 59569 62100.00000 0 -18632365.820 17312236.733 -2336491.780 10 0 59569 63000.00000 0 -18594832.960 17494170.137 873274.218 10 0 59569 63900.00000 0 -18272129.690 17388875.017 4066157.089 10 0 59569 64800.00000 0 -17709194.158 16963565.865 7180434.959 10 0 59569 65700.00000 0 -16958121.659 16196621.490 10155951.943 10 0 59569 66600.00000 0 -16075835.186 15078689.944 12935262.384 10 0 59569 67500.00000 0 -15121575.047 13613294.521 15464720.809 10 0 59569 68400.00000 0 -14154311.838 11816915.761 17695498.328 10 0 59569 69300.00000 0 -13230189.836 9718545.778 19584507.592 10 0 59569 70200.00000 0 -12400106.209 7358732.421 21095220.280 10 0 59569 71100.00000 0 -11707525.738 4788151.255 22198362.893 10 0 59569 72000.00000 0 -11186621.084 2065762.465 22872478.590 10 0 59569 72900.00000 0 -10860815.464 -743373.728 23104344.959 10 0 59569 73800.00000 0 -10741788.380 -3570535.571 22889239.771 10 0 59569 74700.00000 0 -10828986.475 -6345934.099 22231049.025 10 0 59569 75600.00000 0 -11109661.118 -9001358.499 21142214.066 10 0 59569 76500.00000 0 -11559432.951 -11472765.096 19643517.007 10 0 59569 77400.00000 0 -12143361.953 -13702703.906 17763706.464 10 0 59569 78300.00000 0 -12817480.479 -15642482.696 15538968.399 10 0 59569 79200.00000 0 -13530727.143 -17253978.346 13012249.814 10 0 59569 80100.00000 0 -14227201.952 -18511019.079 10232446.147 10 0 59569 81000.00000 0 -14848648.854 -19400278.411 7253466.269 10 0 59569 81900.00000 0 -15337061.184 -19921641.702 4133191.867 10 0 59569 82800.00000 0 -15637299.320 -20088028.133 932350.974 10 0 59569 83700.00000 0 -15699608.258 -19924674.192 -2286672.293 10 0 59569 84600.00000 0 -15481926.255 -19467907.875 -5461067.699 10 0 59569 85500.00000 0 -14951883.963 -18763465.049 -8528842.930 10 0 59570 0.00000 0 -14088406.408 -17864419.698 -11430055.190 10 0 59570 900.00000 0 -12882846.471 -16828816.191 -14108005.565 10 0 59570 1800.00000 0 -11339600.531 -15717106.798 -16510366.567 10 0 59570 2700.00000 0 -9476176.595 -14589503.335 -18590223.940 10 0 59570 3600.00000 0 -7322711.737 -13503358.369 -20307006.685 10 0 59570 4500.00000 0 -4920958.166 -12510688.294 -21627287.429 10 0 59570 5400.00000 0 -2322780.662 -11655944.595 -22525436.633 10 0 59570 6300.00000 0 411770.994 -10974128.355 -22984117.820 10 0 59570 7200.00000 0 3216732.790 -10489327.766 -22994614.653 10 0 59570 8100.00000 0 6022744.425 -10213739.702 -22556984.522 10 0 59570 9000.00000 0 8759708.354 -10147215.219 -21680036.985 10 0 59570 9900.00000 0 11359478.255 -10277346.215 -20381139.133 10 0 59570 10800.00000 0 13758464.829 -10580087.200 -18685853.360 10 0 59570 11700.00000 0 15900050.886 -11020883.461 -16627416.341 10 0 59570 12600.00000 0 17736716.239 -11556255.602 -14246070.988 10 0 59570 13500.00000 0 19231785.798 -12135771.492 -11588265.838 10 0 59570 14400.00000 0 20360730.396 -12704320.744 -8705738.604 10 0 59570 15300.00000 0 21111968.891 -13204594.684 -5654502.680 10 0 59570 16200.00000 0 21487141.118 -13579666.737 -2493756.828 10 0 59570 17100.00000 0 21500843.291 -13775564.540 715260.602 10 0 59570 18000.00000 0 21179839.639 -13743726.026 3910450.767 10 0 59570 18900.00000 0 20561785.564 -13443237.068 7030044.477 10 0 59570 19800.00000 0 19693517.357 -12842757.753 10013781.291 10 0 59570 20700.00000 0 18628980.992 -11922057.554 12804055.895 10 0 59570 21600.00000 0 17426886.779 -10673095.936 15347011.215 10 0 59570 22500.00000 0 16148187.431 -9100603.657 17593558.870 10 0 59570 23400.00000 0 14853483.816 -7222140.416 19500309.020 10 0 59570 24300.00000 0 13600465.268 -5067625.638 21030393.473 10 0 59570 25200.00000 0 12441489.574 -2678360.445 22154167.749 10 0 59570 26100.00000 0 11421402.061 -105579.370 22849779.720 10 0 59570 27000.00000 0 10575683.409 2591410.792 23103594.632 10 0 59570 27900.00000 0 9929002.638 5347430.834 22910468.432 10 0 59570 28800.00000 0 9494235.493 8093879.588 22273863.639 10 0 59570 29700.00000 0 9271989.717 10761336.358 21205804.374 10 0 59570 30600.00000 0 9250658.172 13282210.049 19726669.710 10 0 59570 31500.00000 0 9406999.309 15593326.803 17864827.171 10 0 59570 32400.00000 0 9707222.622 17638349.799 15656111.063 10 0 59570 33300.00000 0 10108535.567 19369930.739 13143153.201 10 0 59570 34200.00000 0 10561088.705 20751502.625 10374576.764 10 0 59570 35100.00000 0 11010238.450 21758637.712 7404066.977 10 0 59570 36000.00000 0 11399032.516 22379911.982 4289335.313 10 0 59570 36900.00000 0 11670812.785 22617237.899 1090996.799 10 0 59570 37800.00000 0 11771824.305 22485649.636 -2128617.594 10 0 59570 38700.00000 0 11653717.980 22012548.330 -5306689.512 10 0 59570 39600.00000 0 11275838.307 21236438.320 -8381157.129 10 0 59570 40500.00000 0 10607196.236 20205207.596 -11291948.205 10 0 59570 41400.00000 0 9628040.450 18974025.701 -13982175.940 10 0 59570 42300.00000 0 8330957.687 17602949.240 -16399271.864 10 0 59570 43200.00000 0 6721453.069 16154337.977 -18496031.526 10 0 59570 44100.00000 0 4817984.083 14690192.729 -20231550.788 10 0 59570 45000.00000 0 2651445.692 13269529.513 -21572033.079 10 0 59570 45900.00000 0 264127.846 11945902.469 -22491451.200 10 0 59570 46800.00000 0 -2291810.575 10765181.148 -22972050.682 10 0 59570 47700.00000 0 -4956286.622 9763676.285 -23004685.332 10 0 59570 48600.00000 0 -7663574.487 8966692.591 -22588979.442 10 0 59570 49500.00000 0 -10344826.717 8387568.245 -21733314.837 10 0 59570 50400.00000 0 -12930729.190 8027239.621 -20454644.632 10 0 59570 51300.00000 0 -15354178.656 7874347.059 -18778139.074 10 0 59570 52200.00000 0 -17552871.267 7905874.405 -16736672.058 10 0 59570 53100.00000 0 -19471694.814 8088292.541 -14370160.002 10 0 59570 54000.00000 0 -21064826.270 8379155.968 -11724767.371 10 0 59570 54900.00000 0 -22297449.110 8729082.839 -8851995.486 10 0 59570 55800.00000 0 -23147021.056 9084033.172 -5807673.304 10 0 59570 56700.00000 0 -23604042.061 9387788.011 -2650870.345 10 0 59570 57600.00000 0 -23672293.227 9584524.529 557246.929 10 0 59570 58500.00000 0 -23368539.310 9621378.640 3754593.165 10 0 59570 59400.00000 0 -22721709.600 9450887.812 6879354.309 10 0 59570 60300.00000 0 -21771593.221 9033212.217 9871167.807 10 0 59570 61200.00000 0 -20567104.546 8338041.951 12672271.146 10 0 59570 62100.00000 0 -19164191.650 7346111.272 15228598.049 10 0 59570 63000.00000 0 -17623474.841 6050257.076 17490802.944 10 0 59570 63900.00000 0 -16007712.913 4455977.549 19415195.626 10 0 59570 64800.00000 0 -14379201.359 2581467.222 20964569.932 10 0 59570 65700.00000 0 -12797209.170 457125.767 22108912.004 10 0 59570 66600.00000 0 -11315559.242 -1875440.839 22825975.692 10 0 59570 67500.00000 0 -9980451.420 -4364887.773 23101714.790 10 0 59570 68400.00000 0 -8828617.511 -6952009.530 22930563.942 10 0 59570 69300.00000 0 -7885884.398 -9571953.959 22315562.304 10 0 59570 70200.00000 0 -7166205.005 -12156683.509 21268316.518 10 0 59570 71100.00000 0 -6671198.050 -14637584.426 19808801.967 10 0 59570 72000.00000 0 -6390217.025 -16948117.734 17965004.059 10 0 59570 72900.00000 0 -6300947.007 -19026403.346 15772404.052 10 0 59570 73800.00000 0 -6370506.094 -20817630.359 13273316.848 10 0 59570 74700.00000 0 -6557006.910 -22276192.673 10516091.329 10 0 59570 75600.00000 0 -6811513.826 -23367459.622 7554186.784 10 0 59570 76500.00000 0 -7080314.200 -24069105.804 4445141.965 10 0 59570 77400.00000 0 -7307407.750 -24371942.121 1249456.225 10 0 59570 78300.00000 0 -7437107.984 -24280211.019 -1970595.426 10 0 59570 79200.00000 0 -7416643.905 -23811331.503 -5152189.431 10 0 59570 80100.00000 0 -7198649.443 -22995103.221 -8233197.463 10 0 59570 81000.00000 0 -6743432.241 -21872402.441 -11153420.644 10 0 59570 81900.00000 0 -6020922.560 -20493424.951 -13855787.863 10 0 59570 82800.00000 0 -5012216.747 -18915550.826 -16287492.368 10 0 59570 83700.00000 0 -3710647.195 -17200922.613 -18401042.315 10 0 59570 84600.00000 0 -2122331.365 -15413840.871 -20155202.945 10 0 59570 85500.00000 0 -266175.238 -13618088.898 -21515810.629 10 0 59571 0.00000 0 1826669.595 -11874301.280 -22456442.131 10 0 59571 900.00000 0 4113873.620 -10237487.481 -22958926.351 10 0 59571 1800.00000 0 6543473.662 -8754817.730 -23013687.824 10 0 59571 2700.00000 0 9055831.863 -7463761.048 -22619917.942 10 0 59571 3600.00000 0 11585923.558 -6390655.089 -21785570.538 10 0 59571 4500.00000 0 14065858.396 -5549765.205 -20527184.086 10 0 59571 5400.00000 0 16427528.422 -4942869.963 -18869535.612 10 0 59571 6300.00000 0 18605272.270 -4559387.615 -16845134.785 10 0 59571 7200.00000 0 20538444.326 -4377035.064 -14493569.671 10 0 59571 8100.00000 0 22173782.507 -4362988.413 -11860718.400 10 0 59571 9000.00000 0 23467477.169 -4475493.362 -8997843.219 10 0 59571 9900.00000 0 24386856.641 -4665855.187 -5960585.602 10 0 59571 10800.00000 0 24911621.258 -4880722.634 -2807882.467 10 0 59571 11700.00000 0 25034576.851 -5064568.333 399175.179 10 0 59571 12600.00000 0 24761839.473 -5162260.784 3598519.125 10 0 59571 13500.00000 0 24112505.113 -5121619.716 6728294.056 10 0 59571 14400.00000 0 23117800.045 -4895847.942 9728038.745 10 0 59571 15300.00000 0 21819748.602 -4445738.353 12539836.626 10 0 59571 16200.00000 0 20269414.630 -3741564.410 15109415.024 10 0 59571 17100.00000 0 18524789.886 -2764575.659 17387173.580 10 0 59571 18000.00000 0 16648416.659 -1508036.181 19329123.719 10 0 59571 18900.00000 0 14704842.283 22237.537 20897722.873 10 0 59571 19800.00000 0 12758009.702 1807862.521 22062588.966 10 0 59571 20700.00000 0 10868690.679 3818401.048 22801082.574 10 0 59571 21600.00000 0 9092066.393 6012379.103 23098746.382 10 0 59571 22500.00000 0 7475554.265 8338771.973 22949593.648 10 0 59571 23400.00000 0 6056970.177 10738898.312 22356239.677 10 0 59571 24300.00000 0 4863101.809 13148647.253 21329872.718 10 0 59571 25200.00000 0 3908752.504 15500949.130 19890063.153 10 0 59571 26100.00000 0 3196296.165 17728389.639 18064412.596 10 0 59571 27000.00000 0 2715762.899 19765860.619 15888047.238 10 0 59571 27900.00000 0 2445453.267 21553138.064 13402962.747 10 0 59571 28800.00000 0 2353057.008 23037279.837 10657231.130 10 0 59571 29700.00000 0 2397230.561 24174742.062 7704082.939 10 0 59571 30600.00000 0 2529567.947 24933123.995 4600881.224 10 0 59571 31500.00000 0 2696882.185 25292465.968 1408006.554 10 0 59571 32400.00000 0 2843700.371 25246043.500 -1812325.178 10 0 59571 33300.00000 0 2914865.567 24800621.808 -4997288.350 10 0 59571 34200.00000 0 2858133.295 23976157.978 -8084691.143 10 0 59571 35100.00000 0 2626649.987 22804961.973 -11014210.856 10 0 59571 36000.00000 0 2181205.363 21330351.211 -13728594.606 10 0 59571 36900.00000 0 1492160.276 19604855.613 -16174799.587 10 0 59571 37800.00000 0 540965.504 17688049.687 -18305048.447 10 0 59571 38700.00000 0 -678795.222 15644104.445 -20077777.371 10 0 59571 39600.00000 0 -2160883.786 13539164.024 -21458456.912 10 0 59571 40500.00000 0 -3886431.020 11438659.190 -22420268.860 10 0 59571 41400.00000 0 -5824504.235 9404672.133 -22944625.755 10 0 59571 42300.00000 0 -7933194.770 7493464.295 -23021523.336 10 0 59571 43200.00000 0 -10161179.205 5753271.227 -22649719.987 10 0 59571 44100.00000 0 -12449687.710 4222456.385 -21836741.027 10 0 59571 45000.00000 0 -14734795.896 2928099.911 -20598709.335 10 0 59571 45900.00000 0 -16949943.256 1885079.325 -18960007.343 10 0 59571 46800.00000 0 -19028572.177 1095677.846 -16952778.709 10 0 59571 47700.00000 0 -20906776.879 549733.541 -14616281.056 10 0 59571 48600.00000 0 -22525851.885 225319.611 -11996103.829 10 0 59571 49500.00000 0 -23834634.374 89923.889 -9143267.704 10 0 59571 50400.00000 0 -24791543.853 102075.008 -6113224.063 10 0 59571 51300.00000 0 -25366235.711 213344.337 -2964774.585 10 0 59571 52200.00000 0 -25540801.675 370637.626 241067.849 10 0 59571 53100.00000 0 -25310469.133 518678.844 3442254.837 10 0 59571 54000.00000 0 -24683772.257 602581.256 6576892.458 10 0 59571 54900.00000 0 -23682189.590 570397.796 9584423.449 10 0 59571 55800.00000 0 -22339264.592 375544.224 12406779.769 10 0 59571 56700.00000 0 -20699246.604 -21005.798 14989484.816 10 0 59571 57600.00000 0 -18815308.960 -648844.834 17282685.742 10 0 59571 58500.00000 0 -16747417.874 -1526652.843 19242097.655 10 0 59571 59400.00000 0 -14559939.524 -2661176.943 20829843.334 10 0 59571 60300.00000 0 -12319083.048 -4046712.706 22015173.864 10 0 59571 61200.00000 0 -10090283.630 -5665109.574 22775057.544 10 0 59571 62100.00000 0 -7935632.162 -7486301.912 23094626.541 10 0 59571 63000.00000 0 -5911456.069 -9469346.009 22967472.939 10 0 59571 63900.00000 0 -4066150.130 -11563922.677 22395788.035 10 0 59571 64800.00000 0 -2438346.170 -13712246.162 21390341.192 10 0 59571 65700.00000 0 -1055497.172 -15851303.104 19970297.000 10 0 59571 66600.00000 0 67065.064 -17915331.148 18162872.177 10 0 59571 67500.00000 0 926558.739 -19838436.240 16002836.464 10 0 59571 68400.00000 0 1532648.263 -21557240.931 13531864.644 10 0 59571 69300.00000 0 1906810.744 -23013453.533 10797749.934 10 0 59571 70200.00000 0 2081197.985 -24156250.246 7853492.003 10 0 59571 71100.00000 0 2097040.725 -24944369.093 4756275.862 10 0 59571 72000.00000 0 2002661.761 -25347825.663 1566360.797 10 0 59571 72900.00000 0 1851181.929 -25349176.095 -1654099.040 10 0 59571 73800.00000 0 1698016.838 -24944271.470 -4842278.675 10 0 59571 74700.00000 0 1598271.932 -24142469.364 -7935925.588 10 0 59571 75600.00000 0 1604148.566 -22966291.672 -10874596.075 10 0 59571 76500.00000 0 1762473.782 -21450541.788 -13600858.310 10 0 59571 77400.00000 0 2112461.426 -19640917.869 -16061436.194 10 0 59571 78300.00000 0 2683802.355 -17592180.900 -18208269.501 10 0 59571 79200.00000 0 3495167.157 -15365955.630 -19999467.753 10 0 59571 80100.00000 0 4553186.729 -13028258.416 -21400137.773 10 0 59571 81000.00000 0 5851955.122 -10646857.487 -22383068.005 10 0 59571 81900.00000 0 7373076.319 -8288578.021 -22929256.067 10 0 59571 82800.00000 0 9086252.875 -6016666.353 -23028269.608 10 0 59571 83700.00000 0 10950391.051 -3888324.338 -22678434.387 10 0 59571 84600.00000 0 12915175.017 -1952516.940 -21886847.180 10 0 59571 85500.00000 0 14923042.756 -248143.915 -20669214.846 10 0 59572 0.00000 0 16911479.420 1197349.683 -19049524.595 10 0 59572 900.00000 0 18815532.083 2368869.296 -17059552.637 10 0 59572 1800.00000 0 20570437.183 3264036.662 -14738224.738 10 0 59572 2700.00000 0 22114254.017 3893016.370 -12130839.737 10 0 59572 3600.00000 0 23390391.742 4277811.995 -9288174.412 10 0 59572 4500.00000 0 24349926.002 4451065.541 -6265487.367 10 0 59572 5400.00000 0 24953609.447 4454413.440 -3121442.023 10 0 59572 6300.00000 0 25173493.722 4336470.602 83030.097 10 0 59572 7200.00000 0 24994096.935 4150528.917 3285903.768 10 0 59572 8100.00000 0 24413069.742 3952067.931 6425249.846 10 0 59572 9000.00000 0 23441333.893 3796182.591 9440418.309 10 0 59572 9900.00000 0 22102688.858 3735035.759 12273192.730 10 0 59572 10800.00000 0 20432903.721 3815441.704 14868895.413 10 0 59572 11700.00000 0 18478332.398 4076680.964 17177423.557 10 0 59572 12600.00000 0 16294109.369 4548637.180 19154198.167 10 0 59572 13500.00000 0 13941999.777 5250333.231 20761009.256 10 0 59572 14400.00000 0 11487991.489 6188927.649 21966742.625 10 0 59572 15300.00000 0 8999726.964 7359213.688 22747975.500 10 0 59572 16200.00000 0 6543879.104 8743643.073 23089430.365 10 0 59572 17100.00000 0 4183577.530 10312875.356 22984278.569 10 0 59572 18000.00000 0 1975990.026 12026832.431 22434287.418 10 0 59572 18900.00000 0 -29842.200 13836217.205 21449806.964 10 0 59572 19800.00000 0 -1794826.582 15684436.263 20049595.112 10 0 59572 20700.00000 0 -3291223.107 17509849.297 18260482.367 10 0 59572 21600.00000 0 -4503571.366 19248254.011 16116880.295 10 0 59572 22500.00000 0 -5429101.167 20835504.591 13660140.707 10 0 59572 23400.00000 0 -6077608.277 22210155.156 10937775.641 10 0 59572 24300.00000 0 -6470799.102 23316017.497 8002551.241 10 0 59572 25200.00000 0 -6641130.621 24104524.806 4911471.629 10 0 59572 26100.00000 0 -6630193.459 24536800.264 1724671.803 10 0 59572 27000.00000 0 -6486706.045 24585341.016 -1495758.935 10 0 59572 27900.00000 0 -6264205.059 24235243.815 -4686999.406 10 0 59572 28800.00000 0 -6018531.037 23484917.892 -7786739.505 10 0 59572 29700.00000 0 -5805217.570 22346252.483 -10734417.527 10 0 59572 30600.00000 0 -5676897.152 20844230.019 -13472425.520 10 0 59572 31500.00000 0 -5680836.398 19016000.102 -15947256.656 10 0 59572 32400.00000 0 -5856707.898 16909452.899 -18110570.108 10 0 59572 33300.00000 0 -6234695.682 14581352.360 -19920150.702 10 0 59572 34200.00000 0 -6834016.631 12095108.821 -21340743.171 10 0 59572 35100.00000 0 -7661921.860 9518285.897 -22344743.927 10 0 59572 36000.00000 0 -8713221.115 6919947.772 -22912736.632 10 0 59572 36900.00000 0 -9970350.293 4367959.413 -23033861.446 10 0 59572 37800.00000 0 -11403978.720 1926353.604 -22706011.692 10 0 59572 38700.00000 0 -12974129.615 -347124.859 -21935855.345 10 0 59572 39600.00000 0 -14631765.213 -2403195.615 -20738682.539 10 0 59572 40500.00000 0 -16320768.530 -4202850.278 -19138083.757 10 0 59572 41400.00000 0 -17980237.212 -5718717.740 -17165466.726 10 0 59572 42300.00000 0 -19546992.095 -6935932.880 -14859423.112 10 0 59572 43200.00000 0 -20958194.615 -7852475.746 -12264958.844 10 0 59572 44100.00000 0 -22153963.168 -8478970.555 -9432604.272 10 0 59572 45000.00000 0 -23079879.055 -8837956.460 -6417422.531 10 0 59572 45900.00000 0 -23689277.916 -8962663.978 -3277935.995 10 0 59572 46800.00000 0 -23945231.899 -8895351.267 -74991.967 10 0 59572 47700.00000 0 -23822141.127 -8685272.258 3129410.395 10 0 59572 48600.00000 0 -23306869.520 -8386363.468 6273309.632 10 0 59572 49500.00000 0 -22399379.048 -8054747.347 9295965.841 10 0 59572 50400.00000 0 -21112837.229 -7746156.979 12139017.030 10 0 59572 51300.00000 0 -19473194.250 -7513389.715 14747587.097 10 0 59572 52200.00000 0 -17518247.603 -7403895.550 17071325.772 10 0 59572 53100.00000 0 -15296232.832 -7457600.237 19065362.167 10 0 59572 54000.00000 0 -12863997.921 -7705053.274 20691155.380 10 0 59572 54900.00000 0 -10284835.443 -8165977.548 21917227.391 10 0 59572 55800.00000 0 -7626060.306 -8848281.117 22719765.378 10 0 59572 56700.00000 0 -4956430.997 -9747572.886 23083082.763 10 0 59572 57600.00000 0 -2343518.626 -10847203.700 22999930.361 10 0 59572 58500.00000 0 148869.601 -12118833.023 22471651.330 10 0 59572 59400.00000 0 2463107.707 -13523500.099 21508175.926 10 0 59572 60300.00000 0 4549910.337 -15013157.752 20127854.598 10 0 59572 61200.00000 0 6370145.209 -16532607.696 18357130.580 10 0 59572 62100.00000 0 7896223.383 -18021759.157 16230055.946 10 0 59572 63000.00000 0 9113008.856 -19418118.536 13787657.926 10 0 59572 63900.00000 0 10018208.320 -20659407.170 11077165.495 10 0 59572 64800.00000 0 10622223.500 -21686197.864 8151109.103 10 0 59572 65700.00000 0 10947470.819 -22444458.937 5066309.561 10 0 59572 66600.00000 0 11027195.860 -22887897.263 1882774.943 10 0 59572 67500.00000 0 10903831.898 -22979999.407 -1337473.094 10 0 59572 68400.00000 0 10626971.777 -22695682.042 -4531620.061 10 0 59572 69300.00000 0 10251039.596 -22022479.038 -7637301.193 10 0 59572 70200.00000 0 9832762.208 -20961212.273 -10593839.700 10 0 59572 71100.00000 0 9428549.695 -19526115.363 -13343454.346 10 0 59572 72000.00000 0 9091898.328 -17744403.303 -15832410.313 10 0 59572 72900.00000 0 8870928.718 -15655305.096 -18012088.721 10 0 59572 73800.00000 0 8806165.998 -13308599.814 -19839952.008 10 0 59572 74700.00000 0 8928658.245 -10762718.177 -21280384.805 10 0 59572 75600.00000 0 9258514.356 -8082490.377 -22305393.097 10 0 59572 76500.00000 0 9803924.147 -5336635.859 -22895147.772 10 0 59572 77400.00000 0 10560702.248 -2595101.615 -23038362.250 10 0 59572 78300.00000 0 11512374.544 73638.622 -22732497.727 10 0 59572 79200.00000 0 12630802.452 2605210.832 -21983793.287 10 0 59572 80100.00000 0 13877317.255 4941783.155 -20807121.861 10 0 59572 81000.00000 0 15204315.048 7034223.248 -19225676.543 10 0 59572 81900.00000 0 16557243.563 8843882.184 -17270495.124 10 0 59572 82800.00000 0 17876895.798 10343932.740 -14979833.795 10 0 59572 83700.00000 0 19101912.989 11520209.183 -12398403.734 10 0 59572 84600.00000 0 20171391.087 12371516.861 -9576486.690 10 0 59572 85500.00000 0 21027481.152 12909402.110 -6568947.837 99